Location: Whispering Pines Observatory
(39.4020°N, 104.7430°W)
Time: 21:38:10
(UTC-06:00)

MOS 1 Rocket - Visible Passes

Search period start: 24 June 2017 00:00
Search period end: 04 July 2017 00:00
Orbit: 616 x 830 km, 97.5° (Epoch: 24 June)

Date Brightness Start Highest point End Pass type
(mag) Time Alt. Az. Time Alt. Az. Time Alt. Az.
24 Jun 3.9 03:38:05 10° NNE 03:43:27 65° E 03:47:20 18° S visible
25 Jun 5.5 02:50:02 10° NE 02:54:08 22° E 02:57:42 11° SE visible
25 Jun 4.1 04:27:28 10° N 04:32:32 43° WNW 04:37:01 12° SW visible
26 Jun 3.8 03:38:19 10° NNE 03:43:39 66° E 03:47:24 18° S visible
27 Jun 5.5 02:50:15 10° NE 02:54:20 22° E 02:57:46 12° SE visible
27 Jun 4.1 04:27:43 10° N 04:32:43 42° WNW 04:37:05 12° SW visible
28 Jun 3.8 03:38:33 10° NNE 03:43:50 67° E 03:47:27 19° S visible
29 Jun 5.4 02:50:27 10° NE 02:54:32 23° E 02:57:50 13° SE visible
29 Jun 4.1 04:27:59 10° N 04:32:55 41° WNW 04:37:08 12° SW visible
30 Jun 3.7 03:38:47 10° NNE 03:44:02 68° E 03:47:30 20° S visible
01 Jul 5.4 02:50:40 10° NE 02:54:44 23° E 02:57:52 13° SE visible
01 Jul 4.2 04:28:14 10° N 04:33:06 40° WNW 04:37:11 13° SW visible
02 Jul 3.7 03:39:01 10° NNE 03:44:14 70° E 03:47:32 21° S visible
03 Jul 5.3 02:50:53 10° NE 02:54:55 23° E 02:57:54 14° SE visible
03 Jul 4.2 04:28:30 10° N 04:33:17 38° WNW 04:37:12 13° SW visible
